Theta_e
276 276 277 278 278 278 279 280 280 281 281 282 282 283 283 284 284 285 285 285 286 286 286 286 287 287 287 287 287 288 288 288 288 288 288 288 288 288 288 288 288 288 288 288 288 289 289 289 289 289 289 289 290 290 290 290 291 291 291 291 291 291 291
276 276 276 276 276 276 277 277 278 278 278 279 279 279 280 280 281 282 282 283 283 284 284 284 285 285 286 286 286 286 286 287 287 287 287 287 287 287 288 288 287 287 287 287 287 288 288 288 288 288 289 289 289 289 289 289 290 290 290 290 290 290 290
276 276 276 276 276 276 276 277 277 277 277 277 278 278 278 278 279 279 280 280 281 281 281 282 282 283 283 284 284 284 285 285 285 286 286 286 286 286 286 286 286 286 287 286 286 287 287 287 288 288 288 288 288 288 289 289 289 289 289 290 290 290 290
276 276 276 276 276 276 276 276 277 277 277 277 277 277 277 277 278 278 278 278 279 279 279 279 280 280 280 281 282 282 282 283 283 284 284 284 285 285 285 285 285 285 285 285 285 286 286 286 286 287 287 287 287 288 288 288 288 289 289 289 289 289 290
276 276 276 277 277 276 276 276 276 276 276 276 276 277 277 277 277 277 278 278 278 278 278 278 279 279 279 279 279 280 280 281 281 282 282 282 283 283 283 284 284 284 284 284 285 285 285 285 285 285 286 286 286 287 287 287 287 288 288 288 288 289 289
275 275 276 276 276 277 276 276 276 276 276 276 276 276 276 276 276 277 277 277 277 277 277 278 278 278 278 278 278 279 279 279 279 280 280 280 280 281 281 281 282 282 282 282 283 283 284 284 284 284 285 285 285 286 286 287 287 287 287 287 287 288 288
274 274 274 274 275 275 275 275 275 275 275 275 276 276 276 276 276 276 276 276 276 277 277 277 277 277 277 277 277 278 278 278 278 278 278 279 279 279 279 279 279 280 280 280 280 281 281 282 282 283 283 283 284 284 284 285 286 286 286 286 287 287 287
273 273 273 273 273 273 273 273 273 273 274 274 275 276 276 276 276 275 275 275 275 275 276 276 276 276 276 276 277 277 277 277 277 277 277 278 278 278 278 278 278 278 278 278 278 278 279 279 279 280 281 281 281 282 282 283 284 284 285 285 285 285 286
273 273 272 272 272 272 272 271 271 271 272 273 274 275 276 276 275 275 275 275 274 274 274 275 275 275 275 275 276 276 276 276 276 276 276 277 277 277 277 277 277 277 277 277 277 277 278 278 278 278 279 279 279 279 280 281 281 282 282 283 283 283 283
272 272 272 272 272 271 271 271 270 270 269 270 272 273 274 275 275 275 274 274 274 273 273 273 274 274 274 274 274 274 274 274 275 275 275 275 275 275 276 275 275 275 275 275 276 276 276 277 277 277 278 278 278 278 278 279 279 279 280 280 281 281 281
271 271 271 271 271 271 270 270 270 269 268 268 270 271 272 272 273 273 273 273 273 272 272 272 272 272 272 272 273 273 273 273 273 273 273 273 274 274 274 274 274 274 273 273 274 274 274 274 275 275 276 276 277 277 277 278 278 278 278 279 279 279 280
270 270 270 270 270 270 270 269 269 269 267 266 267 269 271 271 271 272 272 272 271 271 271 271 271 271 271 271 271 272 272 272 272 272 272 272 272 272 272 272 272 272 272 272 272 272 272 272 272 273 273 274 275 276 276 276 276 277 277 277 278 278 278
269 269 269 269 269 269 269 269 268 268 267 265 265 266 269 269 270 270 270 270 270 270 270 270 270 270 270 270 270 270 270 271 271 272 272 272 272 271 271 271 271 271 271 271 271 271 270 271 271 271 272 272 273 273 274 273 274 274 275 276 276 277 277
268 268 268 268 268 267 267 267 267 267 266 265 264 264 266 267 268 268 268 268 268 268 268 268 268 269 269 269 269 269 269 269 269 270 271 271 271 271 270 270 270 270 270 269 270 270 270 270 270 270 270 271 271 272 272 272 272 272 273 273 274 275 276
266 266 267 267 267 266 266 266 266 266 266 265 263 262 263 265 267 267 266 266 267 266 266 267 267 267 267 268 268 268 268 268 267 268 269 270 270 270 270 269 269 269 269 269 269 269 269 270 269 269 269 270 270 270 270 270 271 271 271 271 272 272 273
265 265 265 266 266 266 266 265 265 265 265 264 263 262 262 264 265 266 266 266 265 265 265 265 266 266 266 267 267 267 267 266 266 266 268 268 268 268 268 268 268 268 268 268 268 269 268 268 268 268 269 269 269 269 269 270 270 269 270 270 270 270 271
263 264 264 264 264 265 265 265 265 264 264 264 263 261 261 262 263 264 265 265 265 265 264 265 265 265 265 266 266 266 266 265 265 265 266 267 267 267 267 267 268 268 267 267 268 267 267 267 268 268 268 268 268 268 268 269 269 269 269 269 269 269 269
262 262 262 263 263 263 264 264 264 264 264 263 263 261 260 260 261 262 263 264 264 264 264 263 263 263 264 264 265 265 265 265 264 264 264 265 265 265 266 266 267 267 267 267 267 266 266 267 267 267 267 267 267 267 267 267 268 268 268 268 268 268 268
261 261 261 261 262 262 262 263 263 263 263 263 262 261 260 259 259 261 262 262 262 263 263 263 263 263 263 263 264 264 264 264 263 263 262 262 262 263 264 265 266 266 267 267 267 266 266 266 266 266 266 266 267 267 267 267 267 267 267 267 267 267 267
260 260 260 260 260 260 261 261 262 262 262 262 262 261 260 259 259 260 260 260 261 262 262 262 262 262 262 262 262 263 263 263 263 262 261 261 261 261 262 263 264 265 265 265 266 266 266 266 266 266 266 266 266 266 266 266 266 266 266 266 266 266 266
259 260 260 259 259 259 260 260 260 261 261 261 261 260 260 259 259 259 259 259 260 260 260 260 261 261 262 262 262 262 262 262 262 261 260 260 260 260 260 262 263 263 263 263 264 264 265 265 265 266 266 266 266 266 266 266 266 266 266 265 265 265 265
258 259 259 259 259 259 259 259 259 259 260 260 260 260 259 259 259 259 258 258 258 259 259 259 260 260 260 261 261 261 261 261 261 261 260 260 259 260 260 261 261 261 262 262 262 263 263 264 264 264 265 265 265 265 266 266 266 265 265 265 265 265 265
258 258 258 258 258 258 258 258 258 258 259 259 259 259 259 258 258 258 258 258 258 258 258 258 259 259 259 260 260 260 260 260 260 260 260 260 259 260 260 260 260 260 260 261 261 262 262 262 263 263 263 264 264 264 265 265 265 265 265 265 264 264 264
257 257 257 258 258 258 258 258 258 258 258 258 258 258 258 258 258 258 258 257 257 257 257 257 258 258 258 258 258 258 259 259 259 259 259 259 259 259 259 259 259 259 259 260 260 260 261 261 262 262 262 262 263 263 263 264 264 264 264 264 264 264 263
257 257 257 257 257 257 257 257 258 258 257 257 257 257 257 258 258 257 257 257 257 256 256 257 257 257 257 257 257 257 258 258 258 258 258 258 258 258 258 258 258 258 258 259 259 259 259 260 260 261 261 261 262 262 262 262 263 263 263 263 263 263 263
256 256 256 256 257 257 257 257 257 257 257 257 257 257 257 257 257 257 257 256 256 256 256 256 256 257 257 256 256 256 257 257 257 257 257 257 257 257 258 258 257 257 257 258 258 258 258 258 259 259 260 260 260 261 261 261 261 262 262 262 262 262 262
256 256 256 256 256 256 257 257 257 257 257 257 257 257 257 257 257 257 256 256 255 255 255 256 256 257 256 256 256 256 256 256 256 256 256 257 257 257 257 257 257 257 257 257 257 257 257 257 257 258 258 259 259 259 259 260 260 261 261 261 261 261 261
255 255 255 255 256 256 256 257 257 257 256 256 256 256 256 256 256 256 256 255 255 254 255 256 256 256 256 255 255 255 255 255 255 255 256 256 256 256 256 256 256 256 256 256 256 256 256 256 256 256 257 257 257 258 258 258 259 259 259 260 260 260 260
255 255 254 254 255 255 255 256 257 256 256 256 256 256 255 256 256 255 255 255 254 254 254 255 256 255 255 255 255 255 255 255 255 255 255 255 255 255 255 255 255 255 255 255 255 255 255 255 255 255 256 256 256 257 257 257 258 258 258 258 259 259 259
254 254 254 253 254 254 254 255 256 256 255 255 255 255 255 255 255 255 254 254 254 254 254 255 255 255 255 255 255 255 255 255 255 255 255 255 255 255 255 255 255 255 255 255 255 254 254 254 254 255 255 255 255 256 256 257 257 257 257 257 258 258 258
254 254 253 253 253 254 254 255 255 255 255 255 255 255 255 255 255 255 254 254 254 254 254 254 254 254 254 254 254 255 255 255 255 255 255 255 255 255 255 255 254 254 254 254 254 254 254 254 254 254 254 254 254 255 255 256 256 257 257 257 257 257 257
254 254 254 253 253 254 254 254 254 254 255 255 254 254 254 254 254 254 254 254 254 254 254 254 254 254 254 254 254 254 254 254 254 254 254 254 255 255 254 254 254 254 254 254 254 254 254 254 254 254 254 254 254 254 254 255 256 256 256 256 256 257 257
254 253 253 254 254 254 254 254 254 254 254 254 254 254 254 254 254 254 254 254 254 254 254 254 254 254 254 254 254 254 254 254 254 254 254 254 254 254 254 254 254 254 254 254 254 254 254 254 254 253 253 254 254 254 254 254 255 255 256 256 256 256 256
255 254 254 254 254 254 254 254 254 254 254 254 254 254 254 254 254 254 254 254 254 254 254 253 254 254 254 254 254 254 254 254 254 254 254 254 254 254 254 254 254 254 254 254 253 253 253 254 253 253 253 254 254 254 254 254 254 255 255 255 255 255 255
255 255 254 254 254 254 254 254 254 255 254 254 254 254 254 254 254 254 254 254 254 253 253 253 253 254 254 254 254 254 253 253 254 254 254 254 254 254 253 253 253 253 253 253 253 253 253 253 253 253 253 253 254 254 254 254 254 254 254 254 255 255 255
255 255 254 254 254 254 254 254 254 254 255 254 254 254 253 253 254 254 254 254 254 254 253 253 253 253 253 253 253 253 253 253 253 253 253 253 253 253 253 253 253 253 253 253 253 253 253 253 253 253 253 253 253 254 254 254 254 254 254 254 254 254 254
Wind_Speed
9 9 9 8 8 8 7 7 7 7 6 6 6 6 6 6 5 4 4 4 4 3 3 3 2 2 2 2 2 2 2 2 2 2 1 1 1 2 3 4 4 5 7 8 8 8 9 10 10 11 11 12 12 13 14 16 17 17 18 18 19 21 23
11 11 10 9 8 9 8 8 7 7 7 6 6 6 6 6 5 5 5 4 4 3 3 4 3 3 3 2 2 2 2 2 2 2 2 2 2 2 2 2 3 4 5 6 6 6 8 9 9 9 10 11 11 12 13 14 16 17 18 19 19 20 21
12 12 11 10 9 9 9 8 8 7 7 7 6 6 6 6 5 5 5 4 4 4 4 5 4 4 4 3 3 3 3 2 3 3 3 3 3 3 3 3 3 3 4 5 5 6 6 7 7 7 9 9 9 10 10 11 13 15 16 18 20 21 22
10 11 11 11 11 11 10 9 9 8 8 7 7 7 7 7 6 6 6 5 5 5 5 5 5 5 5 5 5 5 5 4 4 4 3 4 4 4 5 5 5 5 5 5 6 7 7 7 7 8 9 9 9 9 10 9 11 12 13 15 17 19 21
7 8 9 10 11 12 12 11 10 9 9 8 8 7 7 7 8 8 8 7 7 6 6 6 5 5 5 6 6 6 6 6 6 6 5 5 6 6 6 6 6 7 7 7 8 8 9 9 9 10 11 11 10 10 10 10 11 12 12 12 13 14 16
8 8 8 9 10 12 13 13 13 12 11 9 8 8 8 8 8 9 9 9 9 9 8 8 7 7 7 7 7 7 7 7 8 8 8 8 8 8 8 8 8 8 9 9 9 10 10 10 11 12 13 12 12 13 12 11 11 12 12 12 12 13 14
11 11 10 10 10 11 12 13 15 15 14 13 11 9 9 9 9 9 9 10 10 11 11 11 10 10 10 9 9 8 8 8 9 9 9 9 9 9 10 10 10 10 10 10 11 11 11 12 13 14 14 14 14 14 15 15 14 14 14 13 13 14 14
14 14 13 13 12 12 12 12 13 15 16 16 14 12 11 11 11 11 11 11 11 11 12 12 12 12 12 12 12 12 12 11 11 11 11 11 11 11 11 12 12 12 12 12 12 12 12 13 14 15 15 16 16 16 16 17 17 16 16 16 15 15 16
15 15 14 14 13 13 12 12 12 15 16 17 17 15 13 13 13 13 13 12 12 12 12 12 12 13 13 14 14 14 15 15 15 15 15 15 14 14 14 14 14 14 14 14 14 14 14 14 15 16 16 16 17 17 18 18 18 18 18 18 17 16 18
16 15 14 14 13 12 12 11 11 13 15 18 19 17 16 16 16 16 15 15 14 13 13 12 12 13 13 13 15 15 15 16 16 17 17 17 17 17 17 17 16 16 16 16 15 15 16 15 16 17 17 17 17 18 19 20 20 20 20 20 19 17 19
16 15 15 14 13 13 11 11 10 9 11 19 22 19 19 19 18 18 18 18 18 17 16 15 14 13 13 13 14 15 16 16 16 17 17 18 18 19 19 19 19 18 17 17 16 16 16 16 17 18 18 18 19 19 21 21 21 22 22 21 21 19 20
17 16 15 14 14 13 11 10 9 6 10 19 23 21 20 20 20 20 20 20 19 19 19 18 17 15 14 14 14 15 16 17 17 17 17 17 18 18 19 19 19 19 18 18 17 17 16 16 17 18 18 18 20 21 21 22 21 22 22 22 22 22 23
19 17 16 14 13 13 10 9 9 6 7 14 21 23 21 21 20 21 21 21 20 20 20 20 19 18 16 15 15 16 17 18 18 18 17 18 18 18 18 18 19 18 18 18 18 18 17 17 17 17 17 18 21 21 21 21 22 22 23 23 23 23 25
19 18 17 15 13 13 11 9 9 8 5 10 19 26 24 21 20 20 21 22 21 21 21 20 20 19 17 16 16 16 17 18 20 20 18 18 18 18 18 18 18 18 18 18 19 20 20 19 18 19 19 20 21 22 22 22 23 23 24 25 25 26 27
20 19 18 16 14 13 12 10 9 10 8 7 17 25 25 23 22 20 20 22 21 21 21 21 20 19 18 16 15 16 17 17 20 22 20 19 19 19 19 19 18 18 18 19 21 22 22 21 21 21 23 22 23 24 25 23 24 24 25 26 27 26 26
19 19 18 17 15 14 13 12 10 10 11 10 15 24 27 26 25 21 19 20 20 20 20 21 21 20 19 17 15 15 16 16 18 22 22 20 20 20 20 20 19 19 20 21 23 23 23 23 23 23 25 24 24 27 28 26 26 26 25 26 26 26 26
20 20 19 18 18 16 15 14 12 12 12 12 14 21 26 27 27 24 22 21 21 20 21 21 21 21 20 19 16 15 15 15 18 22 22 21 21 21 21 21 21 20 21 22 24 24 24 25 25 25 25 24 24 27 28 28 29 28 26 27 28 27 26
20 21 21 20 19 18 17 16 15 15 15 14 16 19 24 27 28 26 24 24 23 22 22 22 21 21 21 20 17 15 15 15 17 21 22 22 22 22 22 23 24 22 22 23 24 24 24 25 25 26 26 25 25 26 26 28 30 29 28 29 29 26 25
21 21 21 21 21 20 19 18 17 16 17 17 17 18 20 24 27 27 26 26 24 23 23 22 22 21 21 20 18 16 15 14 15 18 20 21 22 23 23 25 26 24 24 25 24 24 24 24 24 25 26 25 25 25 26 27 28 28 28 29 28 26 25
22 22 22 22 22 22 21 20 19 17 17 18 18 18 20 24 27 27 26 27 26 24 24 23 22 21 21 20 18 16 15 13 11 15 20 21 21 22 24 26 26 25 26 27 26 26 26 25 25 25 25 25 25 24 25 26 27 28 28 29 30 28 26
22 23 23 23 23 23 23 23 21 19 18 18 18 19 21 25 26 26 25 26 26 25 24 24 23 22 21 20 18 17 15 11 9 13 21 21 19 21 25 26 27 26 27 27 27 26 27 26 26 25 25 25 25 24 25 25 26 27 27 27 29 29 28
23 24 23 23 24 24 24 24 23 22 21 19 19 19 21 23 25 25 25 26 26 25 24 24 24 23 21 20 19 17 15 13 13 17 22 22 21 24 26 26 27 27 27 26 26 26 26 26 25 25 25 25 25 25 25 25 25 25 25 26 26 27 28
25 25 25 24 24 24 24 24 24 23 23 22 21 20 21 22 24 24 24 25 25 24 23 24 23 23 22 21 20 18 16 17 18 20 22 23 24 26 26 26 26 26 26 25 25 25 25 25 24 24 24 24 24 24 24 24 24 25 25 25 25 25 26
25 26 26 26 26 25 25 25 24 23 23 24 23 22 21 22 23 23 23 24 24 23 23 24 23 22 22 21 20 19 19 20 20 20 21 23 24 25 25 25 26 26 25 25 25 25 24 24 23 23 23 23 23 23 23 23 23 24 24 24 24 24 24
26 26 27 27 27 26 26 26 25 24 23 23 23 22 21 22 22 22 22 23 23 22 23 23 22 21 21 21 20 20 21 21 21 21 22 23 24 24 25 25 26 26 26 26 25 24 24 24 23 22 22 22 22 22 22 21 22 22 22 22 23 23 22
26 26 27 27 28 27 26 25 24 22 21 20 20 20 19 19 19 19 19 20 20 21 21 21 21 21 21 20 19 20 20 20 21 22 22 22 23 24 24 25 25 25 25 25 24 23 23 23 21 22 21 21 20 20 19 20 21 21 19 19 20 20 20
25 26 26 26 26 26 25 23 21 19 18 18 18 18 17 17 17 16 17 17 17 18 20 20 20 20 19 18 17 18 18 19 21 21 21 22 22 23 23 24 24 24 24 23 22 22 22 21 20 20 20 19 19 19 17 18 20 20 19 18 18 19 20
24 24 24 24 24 24 24 22 20 18 18 18 18 17 17 16 16 15 15 15 15 17 20 21 20 19 18 18 19 18 18 19 20 21 21 21 21 22 22 22 22 22 21 21 20 20 20 19 19 19 19 18 19 18 17 17 18 19 19 19 18 19 20
23 22 22 23 23 24 24 24 21 20 19 18 17 17 17 17 16 16 16 17 16 18 21 22 21 20 20 20 20 20 19 20 20 20 20 20 19 19 19 19 19 19 18 18 19 19 19 19 19 19 19 19 20 19 17 17 19 19 19 19 19 19 18
22 21 21 22 23 23 24 25 23 21 20 19 18 17 17 17 17 17 18 18 18 19 21 21 21 21 21 21 21 21 20 20 20 20 20 19 18 17 17 17 17 17 17 17 18 18 19 19 19 19 20 20 21 21 20 19 20 20 20 21 21 20 19
20 20 20 21 23 23 24 24 23 22 21 21 20 19 18 18 18 18 19 19 20 20 21 21 21 22 21 21 22 21 20 20 20 20 19 19 18 17 16 16 17 17 17 17 17 18 19 19 19 20 20 21 21 21 22 21 21 21 21 22 22 22 22
20 20 20 20 22 23 24 23 22 22 22 21 20 20 19 19 18 19 19 20 20 21 21 21 21 22 21 21 22 21 20 21 20 20 19 19 18 17 17 17 18 18 18 18 18 19 19 19 20 21 21 21 21 22 22 22 22 22 22 23 24 25 25
18 18 19 21 21 22 23 23 22 22 22 21 21 20 20 19 19 20 20 20 21 22 22 21 22 22 22 22 22 21 21 20 20 20 20 19 19 18 18 18 18 19 19 19 19 20 20 21 21 22 22 22 22 23 23 23 22 23 23 23 24 25 26
18 17 18 20 21 21 22 23 23 22 22 21 21 20 20 20 20 20 20 21 21 22 22 22 23 23 23 23 22 21 21 21 20 20 20 20 20 19 19 19 19 19 19 19 19 20 21 21 22 22 23 23 23 23 24 23 23 23 23 23 24 24 25
22 19 18 19 20 21 22 23 23 23 22 21 21 20 20 21 21 21 21 21 22 22 23 23 24 24 24 24 23 23 22 21 20 20 20 20 20 19 19 19 18 18 19 19 19 20 21 21 22 22 23 23 23 23 23 23 22 22 22 22 23 23 23
25 23 21 19 18 19 21 23 24 23 22 21 20 20 20 22 22 22 22 22 23 23 23 23 24 25 25 24 24 24 23 22 21 20 19 19 19 19 19 18 18 18 18 18 19 20 20 20 21 22 22 23 23 22 22 22 22 22 22 22 22 22 22
Wind_Direction
49 57 63 68 66 60 62 71 78 78 78 79 78 76 74 71 64 60 64 68 71 80 84 81 73 67 71 76 66 41 28 21 24 31 16 347 314 290 273 262 254 242 243 258 267 267 270 274 275 275 274 271 267 265 263 261 259 258 257 256 254 252 250
24 35 43 49 54 55 50 50 56 59 60 62 63 64 63 59 53 48 51 50 45 45 46 44 40 38 38 41 39 25 14 2 354 352 352 341 318 301 290 275 265 251 250 262 269 265 264 269 274 277 275 273 270 265 262 262 262 260 259 258 257 255 253
10 12 19 24 29 36 38 37 37 39 41 43 44 45 45 44 42 37 35 34 30 28 27 23 17 15 12 11 10 6 355 350 349 338 331 327 318 311 305 297 289 275 268 271 274 273 270 272 279 280 276 276 276 273 269 266 264 262 261 260 259 258 257
12 5 3 5 9 13 17 18 20 20 19 20 24 26 26 22 19 16 13 11 11 12 10 5 1 358 358 354 348 344 341 336 333 328 323 317 314 312 308 304 300 293 287 282 281 286 288 291 293 288 282 283 285 283 281 277 273 269 265 263 261 260 259
20 11 360 355 356 358 359 360 360 1 3 4 6 7 6 3 360 356 353 351 350 350 348 347 345 342 343 343 335 329 328 326 321 318 316 311 307 305 303 302 301 299 297 293 291 291 292 293 293 287 285 288 287 284 282 282 282 279 273 270 268 266 264
9 11 8 1 354 350 348 346 344 344 346 348 350 352 351 349 347 343 339 336 334 333 333 333 333 332 329 326 323 318 315 315 313 311 310 307 304 303 300 298 297 296 295 294 294 293 291 290 286 284 286 289 289 288 287 283 279 279 279 278 276 274 272
0 1 4 4 360 354 349 344 337 335 333 332 333 338 340 338 337 334 332 330 327 325 324 324 323 323 321 317 314 311 308 307 304 302 302 300 298 297 297 296 295 293 292 291 291 289 289 288 286 287 289 290 292 293 292 290 285 280 279 278 278 279 277
355 356 356 356 357 354 352 349 339 331 326 323 323 326 328 325 324 325 327 326 325 322 319 318 317 316 315 313 312 310 307 305 303 301 298 297 296 295 294 294 294 293 292 292 290 287 285 285 285 287 289 289 290 290 288 288 287 286 286 285 286 288 285
348 350 348 348 350 347 348 350 342 334 328 319 316 319 318 315 314 314 316 316 318 319 316 314 313 311 310 310 309 309 308 307 306 304 302 301 300 299 298 296 296 295 294 293 292 290 288 286 284 284 286 286 288 289 287 287 288 288 289 289 290 293 291
342 342 339 340 341 339 342 342 340 345 336 316 312 314 312 311 310 309 310 312 311 311 311 309 307 306 305 304 303 303 303 304 303 303 303 302 302 302 301 301 300 299 298 297 296 295 292 291 288 286 286 285 286 288 288 288 289 288 287 286 287 290 289
335 334 331 332 331 330 335 333 333 356 344 315 307 308 306 306 307 306 307 309 310 309 308 305 302 303 301 299 298 296 295 296 296 297 298 298 299 300 300 301 301 300 300 300 299 298 297 295 293 290 290 289 287 286 286 285 285 286 287 287 286 286 283
329 329 327 326 325 323 327 324 318 347 353 324 307 301 301 302 303 304 304 305 307 307 306 304 302 302 302 300 297 294 292 290 288 289 291 292 293 294 295 296 296 297 298 298 297 296 296 295 293 293 293 292 288 286 287 288 287 286 286 285 286 285 282
325 325 325 323 323 319 318 317 302 301 348 332 307 297 298 300 300 303 303 302 304 304 303 303 301 300 302 302 300 297 295 291 287 284 284 287 287 288 288 288 289 290 291 291 291 291 290 289 289 290 291 290 288 288 289 290 289 288 289 288 288 287 284
322 321 322 322 322 319 316 315 300 279 296 333 315 303 300 300 300 302 303 302 303 303 302 302 301 301 301 301 300 299 297 295 291 286 283 283 283 282 282 282 283 284 283 282 281 280 280 283 284 285 284 285 287 288 287 287 288 289 290 290 290 290 288
320 319 319 319 318 318 314 311 306 286 273 304 317 309 303 300 299 301 303 303 303 303 303 303 302 301 301 300 300 298 297 298 295 290 286 284 283 281 280 278 278 278 278 276 275 275 278 280 279 279 280 282 285 285 285 286 288 289 290 292 294 294 293
318 317 317 316 314 314 312 305 303 294 275 274 300 307 304 301 299 299 298 298 300 302 303 303 303 302 302 301 299 298 297 297 294 291 289 287 285 283 280 278 276 276 275 274 274 276 278 278 276 275 278 281 282 282 284 286 286 287 290 293 293 292 294
317 315 315 315 312 310 308 303 299 296 286 273 283 299 304 303 301 301 299 297 299 301 301 301 301 302 302 301 301 301 299 295 292 291 291 289 286 283 282 279 275 272 272 273 275 277 277 276 277 276 276 278 278 279 282 284 284 285 288 289 289 291 293
315 314 313 312 312 309 306 304 299 296 294 285 281 294 305 306 303 302 303 302 300 301 301 301 301 302 300 300 301 299 297 296 292 291 293 292 287 284 285 283 277 272 270 270 271 273 274 275 276 276 276 276 275 276 278 278 280 283 285 285 286 289 290
312 312 311 310 310 308 306 304 301 297 295 292 288 291 299 302 301 303 304 303 301 301 300 299 300 301 301 301 301 299 296 293 291 293 297 296 293 291 288 284 282 282 279 275 272 271 271 271 272 274 275 276 275 275 276 275 276 277 278 279 280 282 285
311 310 310 309 308 308 306 304 302 298 294 292 291 290 289 292 297 302 303 302 302 303 301 299 298 298 299 301 302 299 293 286 291 301 299 296 297 296 289 284 287 290 289 285 283 281 278 276 274 273 274 274 273 272 272 272 272 272 272 273 274 276 278
310 309 308 308 307 307 307 306 304 302 297 292 290 288 286 289 294 299 301 301 301 303 302 301 300 299 300 299 298 297 293 285 288 295 290 288 290 287 283 287 292 292 290 289 289 288 286 285 283 281 278 276 274 272 269 268 269 270 270 270 271 271 271
309 307 306 306 305 305 306 305 305 304 300 295 290 286 285 287 290 294 296 297 299 300 300 299 300 300 301 299 296 295 291 278 267 269 273 276 278 277 281 288 290 288 288 290 290 289 288 288 288 286 284 282 280 277 274 272 271 271 271 270 269 268 267
307 306 305 305 304 303 303 302 302 302 300 297 294 289 286 286 287 289 292 293 295 297 296 296 297 298 299 298 296 292 285 276 272 271 271 272 274 277 282 285 286 287 289 289 288 289 289 289 288 288 286 284 282 279 277 275 273 272 272 271 270 268 267
305 305 305 304 304 303 302 301 301 300 299 297 294 291 288 286 286 287 288 289 291 293 292 293 296 297 296 294 292 288 284 282 281 278 275 274 276 279 282 284 286 289 290 290 291 291 291 289 288 287 286 284 283 281 279 277 274 272 272 272 272 271 269
305 304 304 304 304 304 303 303 303 302 300 297 295 293 291 288 287 287 287 288 288 288 289 291 293 293 292 291 289 288 287 285 282 279 278 277 279 280 282 284 286 289 290 292 293 293 292 291 290 288 286 285 284 282 282 281 278 275 274 274 275 274 273
304 304 303 303 303 303 303 304 305 305 303 300 298 297 296 294 293 292 291 291 291 290 289 291 291 290 290 290 289 288 287 284 282 280 279 279 280 281 282 283 286 289 292 293 293 292 291 290 289 287 286 285 284 282 282 282 280 278 277 276 275 275 273
303 302 302 302 302 303 303 304 306 307 306 304 303 302 301 299 298 297 296 296 297 294 291 290 292 293 294 295 292 290 289 287 286 285 283 283 283 283 283 284 286 289 290 290 290 289 288 288 288 287 286 286 284 282 283 281 280 279 277 276 275 275 273
302 302 302 301 302 303 303 305 308 309 308 306 306 305 304 302 302 301 299 298 298 295 293 294 297 300 302 301 297 294 292 291 290 289 287 287 286 285 285 285 286 286 287 287 287 287 287 288 289 288 287 286 283 282 282 280 278 278 277 277 277 277 278
302 302 301 300 300 301 302 304 307 308 306 305 304 303 302 302 301 299 296 294 293 292 292 296 300 301 301 300 297 294 293 291 290 289 288 287 287 286 285 284 282 282 282 281 281 283 284 285 286 287 288 287 284 282 279 275 273 274 276 276 276 277 279
299 299 297 294 294 295 296 299 304 305 303 302 301 299 297 296 296 293 292 291 291 289 289 293 297 297 296 296 295 293 292 291 290 290 289 289 288 286 284 282 280 279 278 277 277 280 282 283 285 286 287 287 286 284 280 274 272 272 273 274 276 278 278
298 297 293 290 290 291 292 296 299 300 299 299 298 296 294 292 291 289 289 289 288 287 289 291 292 292 293 293 293 292 290 290 290 289 289 288 287 285 284 282 280 278 277 277 278 279 281 283 285 286 286 287 287 286 284 281 277 274 273 272 273 275 276
299 297 294 291 290 291 293 295 295 295 295 295 294 293 292 290 289 287 287 287 287 287 289 290 289 290 290 290 290 290 289 288 288 288 287 286 285 284 283 281 279 278 278 277 277 278 280 281 283 284 286 286 287 287 287 286 283 279 277 275 273 273 274
298 296 295 293 291 291 291 292 292 292 292 292 291 291 290 289 287 286 286 287 288 288 289 289 288 289 289 289 289 289 288 287 286 286 285 285 284 283 281 279 278 278 278 278 278 278 280 281 282 284 285 286 287 288 287 287 287 285 283 281 280 278 277
301 298 295 293 292 291 290 289 288 289 289 289 288 289 288 287 286 286 287 288 288 288 289 289 289 289 289 289 289 289 288 287 286 284 283 283 283 282 281 280 279 279 279 280 280 280 281 282 283 284 285 285 286 286 287 287 288 287 286 285 284 283 282
306 305 301 296 293 292 289 288 287 287 287 287 287 287 287 285 286 287 288 289 289 288 289 289 289 289 289 290 289 289 287 286 284 282 281 281 280 280 280 280 280 280 280 281 281 281 282 282 282 283 284 284 284 284 285 286 286 285 285 284 284 284 284
307 307 304 300 297 292 288 287 287 288 287 287 287 286 285 285 286 288 289 289 288 288 288 288 287 287 287 287 286 286 285 284 282 280 278 278 278 279 279 280 280 281 281 281 281 281 281 282 282 282 282 283 283 283 284 284 284 283 282 282 282 282 281